Temperature
18 18 18 18 18 18 18 18 18 18 18 18 18 18 18 18 18 18 18 18 18 18 18 18 17 17 17 17 17 17 17 16 16 16 16 16 16 16 16 16 16 16 16
18 18 18 18 18 18 18 18 18 18 18 18 18 18 18 18 18 18 18 18 18 18 18 18 18 17 17 17 17 17 17 17 17 16 16 16 16 16 16 16 16 16 16
18 18 18 18 18 18 18 18 18 18 18 18 18 18 18 18 18 18 18 18 18 18 18 18 18 18 17 17 17 17 17 17 17 17 16 16 16 16 16 16 16 16 16
18 18 18 18 18 18 18 18 18 18 18 18 18 18 18 18 18 18 18 18 17 17 17 17 17 17 17 17 17 17 17 17 17 17 16 16 16 16 16 16 16 16 16
18 18 18 18 18 18 18 18 18 18 18 18 18 18 18 18 18 18 18 18 18 17 17 17 17 17 17 17 17 17 17 17 17 17 17 16 16 16 16 16 16 16 16
18 18 18 18 18 18 18 18 18 18 18 18 18 18 18 18 18 18 18 18 18 18 18 17 17 17 17 17 17 17 17 17 17 17 17 16 16 16 16 16 16 16 16
18 18 18 18 18 18 18 18 18 18 18 18 18 18 18 19 19 19 18 18 18 18 18 18 18 17 17 17 17 17 17 17 17 17 17 16 16 16 16 16 16 16 16
18 18 18 18 18 18 18 18 18 18 18 18 18 18 18 19 19 19 19 19 18 18 18 18 18 17 17 17 17 17 17 17 17 17 17 16 16 16 16 16 16 16 16
19 18 18 18 18 18 18 18 18 18 18 18 18 18 18 19 19 19 19 19 19 18 18 18 18 18 18 17 17 17 17 17 17 17 17 17 16 16 16 16 16 16 16
19 19 19 19 18 18 18 18 18 18 18 18 18 18 18 18 18 18 19 19 19 18 18 18 18 18 18 18 17 17 17 17 17 17 17 17 16 16 16 16 16 16 16
19 19 19 19 18 18 18 18 18 18 18 18 18 18 18 18 18 18 18 19 18 18 18 18 18 18 18 18 17 17 17 17 17 17 17 17 17 16 16 16 16 16 16
19 19 19 19 18 18 18 18 18 18 18 18 18 18 18 18 18 18 18 18 18 18 18 18 18 18 18 18 17 17 17 17 17 17 17 17 16 16 16 16 16 16 16
19 19 19 18 19 18 18 18 18 18 18 18 18 18 18 18 18 18 18 18 18 18 18 18 18 18 17 17 17 17 17 17 17 17 17 16 16 16 16 16 16 16 16
19 19 19 18 18 18 18 18 18 18 18 18 18 18 18 18 18 18 17 17 17 18 18 18 18 17 17 17 17 17 17 17 17 17 16 16 16 16 16 16 16 16 15
19 19 19 18 18 18 18 18 18 18 17 18 18 18 17 17 17 17 17 17 17 17 17 17 17 17 17 17 17 17 17 16 16 16 16 16 16 16 16 16 15 15 15
19 19 18 18 18 18 18 18 17 17 17 17 17 17 17 17 17 17 17 17 16 16 16 16 16 16 16 16 16 16 16 16 16 16 16 16 16 16 15 15 15 15 15
19 18 18 18 18 18 17 17 17 17 17 17 17 17 17 17 17 17 16 16 16 16 16 16 16 16 16 16 16 16 15 15 15 15 15 15 15 15 15 15 15 15 14
18 18 18 18 17 17 17 17 17 17 17 17 17 16 16 16 16 16 16 16 16 16 15 15 15 15 15 15 15 15 15 15 15 15 15 15 15 15 15 14 14 14 14
18 18 18 17 17 17 17 17 17 17 17 17 16 16 16 16 16 16 16 16 16 15 15 15 15 15 15 15 15 14 14 14 14 14 14 14 14 14 14 14 14 13 13
18 18 17 17 17 17 17 17 17 17 16 16 16 16 16 16 16 16 15 15 15 15 15 15 14 14 14 14 14 14 14 14 14 13 13 13 13 13 13 13 13 13 13
17 17 17 17 17 17 16 16 16 16 16 16 15 15 15 15 15 15 15 15 15 15 14 14 14 14 13 13 13 13 13 13 13 13 13 13 13 13 12 12 12 12 12
17 17 17 17 17 16 16 16 16 16 15 15 15 15 15 15 15 15 14 14 14 14 14 14 13 13 13 13 13 13 13 13 12 12 12 12 12 12 12 11 11 11 11
17 17 17 16 16 16 16 16 16 15 15 15 14 14 14 14 14 14 14 14 14 13 13 13 13 12 12 12 12 12 12 12 12 12 12 12 11 11 11 11 11 11 11
16 16 16 16 15 15 15 15 15 15 15 14 14 14 14 13 13 13 13 13 13 13 13 12 12 12 12 12 12 12 11 11 11 11 11 11 11 11 11 11 11 10 10
15 15 15 15 15 15 15 15 14 14 14 14 13 13 13 13 13 13 13 12 12 12 12 12 12 11 11 11 11 11 11 11 10 10 10 10 10 10 10 10 10 10 10
15 15 15 14 14 14 14 14 14 13 13 13 13 13 13 12 12 12 12 12 12 11 11 11 11 11 11 11 11 11 11 10 10 10 10 10 9 10 10 10 9 9 9
Wind_Speed
4 5 4 4 6 7 6 4 3 2 2 1 0 1 3 4 6 10 12 14 13 12 10 10 9 8 8 8 8 7 7 7 7 7 7 6 6 6 6 5 5 5 5
6 5 3 2 3 5 5 4 4 3 1 1 1 1 1 3 4 9 12 13 14 13 12 11 10 10 9 9 9 9 8 8 8 8 8 8 7 7 7 6 6 6 6
7 5 3 3 4 5 5 3 2 3 3 3 2 2 2 2 3 5 10 13 13 14 14 14 13 12 11 11 11 10 10 10 10 10 10 9 9 9 8 8 8 8 8
7 5 4 3 5 5 5 3 2 2 2 1 1 2 2 3 5 7 9 12 13 13 15 16 15 14 13 13 12 12 12 12 12 12 11 11 11 11 10 10 10 10 10
6 4 2 3 4 3 3 4 3 1 1 1 2 3 3 3 4 7 7 10 12 13 15 17 19 17 16 15 15 14 14 14 14 14 13 13 13 13 13 12 12 12 12
8 5 3 4 4 3 2 2 2 2 1 2 4 3 3 4 4 4 5 7 10 13 14 16 17 17 19 18 17 16 16 16 16 15 15 15 15 15 15 15 14 14 14
7 5 3 4 4 3 3 3 3 3 4 3 2 2 3 5 5 5 5 5 6 10 12 14 16 15 15 20 20 19 18 17 17 16 16 16 16 16 16 16 15 15 15
8 8 5 4 4 3 3 3 3 2 3 3 2 2 2 3 3 6 5 5 6 6 7 12 14 14 13 14 17 21 20 19 18 17 17 17 17 17 17 17 16 17 16
9 8 6 5 4 5 4 5 5 5 4 3 3 2 2 2 2 2 5 5 4 3 3 6 10 13 14 13 15 19 21 20 19 18 17 17 18 18 18 17 17 17 17
9 9 7 7 5 5 4 6 6 5 5 4 3 3 3 2 1 2 2 2 2 4 4 5 6 9 12 11 13 16 20 20 19 17 16 16 17 17 18 17 17 18 18
8 9 8 6 6 5 5 5 3 4 4 5 4 3 4 3 4 3 3 3 2 3 4 4 4 5 8 9 10 12 16 18 18 17 16 15 15 15 16 17 17 17 18
6 7 8 6 6 6 5 5 4 5 5 4 4 3 3 3 3 4 5 4 4 4 4 3 3 3 5 6 7 8 13 15 15 15 14 14 14 14 14 14 15 15 15
5 6 7 6 5 6 6 5 5 5 6 6 5 5 4 4 3 3 4 4 4 3 2 1 1 2 3 3 3 6 9 11 11 11 11 12 12 12 12 12 13 13 13
5 6 6 6 6 6 7 6 5 6 5 6 7 5 4 4 3 3 3 3 4 3 2 3 1 1 1 1 2 4 4 9 10 9 9 9 10 10 10 10 10 10 10
5 6 6 6 6 6 6 5 5 6 5 5 5 5 4 4 3 2 2 2 3 4 4 3 2 0 1 2 3 4 2 5 8 7 7 7 7 7 7 7 7 7 7
4 4 4 4 5 5 5 5 4 4 4 4 4 4 4 4 3 3 3 2 2 3 4 3 2 1 1 0 3 3 3 4 6 7 6 6 5 5 5 5 5 5 5
3 3 3 3 3 3 3 3 3 3 3 3 4 3 4 4 3 2 2 2 3 3 4 4 2 1 0 0 1 1 1 2 4 6 7 6 5 4 3 3 3 3 3
3 2 3 3 2 2 2 2 2 2 2 2 2 1 2 2 2 2 2 2 2 2 2 4 2 2 1 1 1 1 1 1 3 3 6 7 7 6 5 4 4 4 3
2 2 2 2 1 1 1 1 1 1 1 0 1 1 1 1 1 1 1 2 1 1 1 1 2 1 1 1 1 1 1 0 1 3 4 6 7 7 7 7 6 6 5
2 2 3 2 2 1 2 2 2 2 2 2 2 2 3 3 2 2 1 2 2 2 1 1 1 1 2 2 1 1 1 1 1 2 4 5 9 9 7 7 6 6 6
3 3 3 2 2 2 2 2 2 3 3 4 4 4 6 8 8 5 3 3 2 2 2 2 2 2 3 3 3 2 1 1 1 1 1 2 5 5 5 4 4 5 5
4 4 4 4 4 3 4 5 4 3 4 4 5 5 6 8 9 10 11 10 8 5 4 3 3 3 4 4 3 3 2 1 1 1 1 0 2 2 4 5 5 5 5
5 6 5 6 6 6 7 7 6 4 5 6 6 5 5 6 7 6 8 9 10 10 8 4 5 4 4 5 4 3 3 3 2 2 2 1 1 1 3 4 6 7 6
6 6 6 7 6 7 8 7 7 6 7 7 7 7 7 7 7 6 6 7 7 7 6 5 5 5 5 5 4 2 1 1 2 4 4 1 1 1 2 3 5 7 6
7 7 6 6 6 7 8 8 6 6 7 8 8 8 8 7 8 8 6 6 6 5 8 9 8 7 8 10 9 5 4 3 3 3 5 3 2 1 1 1 2 4 4
7 7 8 8 8 7 9 9 7 5 6 6 7 8 10 8 8 8 5 5 5 4 3 4 4 4 6 8 11 7 5 4 3 3 5 5 3 3 2 2 1 2 1
Wind_Direction
137 131 125 154 163 165 168 173 160 140 99 101 209 92 65 87 123 130 147 161 164 169 174 177 180 180 180 182 183 182 181 180 181 183 185 185 184 183 182 178 177 176 174
129 130 144 159 154 155 149 161 161 144 162 223 187 134 151 153 139 142 155 168 175 178 183 186 189 192 195 197 197 197 198 198 196 196 198 198 199 201 202 201 199 197 197
143 155 159 178 170 154 143 154 175 172 189 204 190 196 198 182 168 159 162 170 179 189 193 195 197 201 204 207 208 208 208 208 207 207 210 211 211 212 214 215 214 212 213
161 175 177 182 162 165 161 179 213 193 191 205 209 216 195 188 191 194 190 183 182 189 197 203 204 207 210 214 215 215 216 215 215 216 218 219 219 219 221 222 222 222 222
175 195 179 136 172 185 187 196 154 189 198 216 236 213 216 213 204 213 202 197 191 187 189 200 206 210 214 217 219 220 220 220 221 221 222 223 223 224 225 227 228 227 227
186 200 188 174 210 202 192 166 151 194 234 238 255 239 234 226 211 211 214 209 197 198 197 192 199 211 217 220 222 223 222 223 224 224 226 227 227 227 227 229 230 230 231
192 207 221 173 216 221 199 191 190 206 227 233 254 264 262 248 224 212 216 214 213 209 198 183 192 202 209 220 223 224 224 226 226 227 228 229 230 229 229 231 233 234 233
202 205 214 210 207 217 219 221 208 231 244 217 226 252 255 256 248 229 211 214 218 210 200 197 198 201 203 203 217 222 224 225 227 228 229 230 231 231 231 232 234 234 234
206 219 202 219 216 217 208 214 216 221 244 250 226 227 254 253 283 251 228 227 210 202 217 227 207 202 208 203 204 216 220 222 225 228 229 230 231 232 233 233 235 235 234
208 212 212 218 224 235 213 217 216 216 225 248 245 225 236 261 266 295 274 248 223 225 229 245 233 211 209 209 208 207 211 216 222 227 231 234 234 233 233 235 237 237 235
210 215 210 213 219 232 230 233 227 222 225 234 249 236 236 240 226 233 263 267 256 239 241 245 244 228 212 207 205 204 204 210 216 223 229 233 235 235 235 236 238 239 239
211 216 215 207 215 226 232 233 229 225 232 245 260 264 249 235 229 229 247 262 261 248 231 232 235 232 229 213 209 209 202 203 210 219 227 232 235 238 239 239 240 242 242
212 213 219 210 218 225 226 226 224 227 225 231 238 252 258 260 256 252 256 268 273 277 261 256 245 226 237 210 202 204 197 196 202 214 225 231 235 237 241 242 243 245 245
223 211 209 210 218 226 229 222 227 227 226 228 239 244 256 265 268 265 262 272 283 289 286 274 279 200 188 158 151 186 192 186 193 205 217 226 232 235 240 243 244 245 245
224 209 206 213 216 223 230 225 227 229 222 223 235 238 247 260 264 274 277 259 255 270 277 277 283 297 140 155 152 154 127 159 182 195 207 215 222 227 231 234 238 240 243
228 215 200 211 223 225 229 229 233 230 223 230 232 237 243 255 249 251 258 256 246 250 265 282 288 307 13 8 129 132 140 126 171 188 196 197 198 201 206 214 221 229 235
216 210 194 210 215 217 216 222 233 229 229 238 242 231 237 251 255 261 259 247 243 242 255 276 279 297 296 47 103 119 156 151 146 177 186 185 181 174 164 174 185 199 208
204 198 182 186 191 199 201 205 227 226 223 234 245 244 258 257 256 279 294 296 270 243 245 271 290 305 309 281 210 213 221 180 143 143 166 170 164 157 144 132 130 124 117
180 168 147 149 171 182 165 149 178 187 164 114 25 48 342 15 16 13 4 338 319 298 240 256 296 321 327 333 325 292 261 212 190 151 135 151 148 132 124 119 114 110 105
158 145 137 141 141 139 124 118 119 95 80 71 59 53 51 55 37 34 33 12 7 16 34 34 352 349 343 334 331 315 314 316 320 96 90 113 125 122 121 119 118 115 109
131 121 124 111 101 95 84 95 113 103 91 83 72 65 64 70 61 52 52 28 20 32 36 39 30 20 5 357 342 326 324 356 21 39 130 151 134 125 120 126 127 120 113
97 99 95 87 79 80 58 62 73 77 77 77 72 68 75 72 67 63 59 53 50 51 42 41 41 33 12 359 345 345 343 348 338 350 15 339 108 123 122 121 130 133 132
90 86 85 87 82 57 56 64 67 75 72 68 65 58 60 61 61 62 59 57 54 53 60 67 58 37 23 5 1 16 18 8 356 356 24 24 54 85 100 131 152 149 150
87 83 81 80 78 57 50 56 65 77 77 71 64 57 60 53 48 57 62 60 56 50 55 68 67 52 42 19 6 6 13 34 60 36 19 10 24 34 82 136 169 165 161
88 86 85 82 79 60 47 51 69 87 82 75 67 60 61 57 38 54 70 71 68 62 64 75 84 74 54 41 29 24 18 39 45 39 18 8 5 2 62 99 161 171 175
92 88 79 73 75 65 48 52 68 96 93 84 75 68 60 57 43 50 70 73 69 58 59 63 68 62 58 49 42 37 27 26 34 33 14 4 2 5 14 39 69 156 198
Height
1574 1575 1576 1577 1578 1579 1580 1581 1582 1583 1584 1585 1586 1587 1587 1588 1588 1587 1587 1588 1588 1588 1589 1589 1590 1590 1591 1592 1592 1593 1594 1594 1595 1596 1597 1597 1598 1598 1599 1599 1600 1601 1601
1574 1575 1576 1577 1579 1580 1581 1582 1582 1583 1584 1585 1586 1586 1587 1588 1588 1587 1587 1587 1588 1588 1589 1589 1589 1590 1590 1591 1592 1592 1593 1594 1594 1595 1596 1596 1597 1598 1598 1599 1599 1600 1600
1574 1576 1577 1578 1579 1580 1581 1582 1583 1583 1584 1585 1586 1586 1587 1587 1588 1588 1587 1587 1587 1588 1588 1589 1589 1589 1590 1590 1591 1591 1592 1593 1593 1594 1595 1595 1596 1596 1597 1598 1598 1599 1599
1574 1575 1577 1578 1579 1580 1581 1581 1582 1583 1584 1585 1585 1586 1586 1586 1587 1587 1587 1587 1586 1587 1587 1588 1588 1588 1589 1589 1589 1590 1591 1591 1592 1592 1593 1594 1594 1595 1595 1596 1596 1597 1598
1574 1575 1577 1577 1578 1579 1580 1581 1581 1582 1583 1584 1584 1585 1585 1585 1585 1586 1586 1586 1586 1586 1586 1586 1587 1587 1587 1588 1588 1588 1589 1589 1590 1590 1591 1592 1592 1593 1593 1594 1594 1595 1596
1573 1574 1575 1577 1578 1579 1580 1580 1581 1581 1582 1583 1583 1583 1583 1583 1583 1584 1584 1585 1585 1584 1584 1584 1584 1585 1585 1586 1586 1586 1587 1587 1588 1588 1589 1589 1590 1590 1591 1591 1592 1592 1593
1572 1573 1574 1575 1576 1577 1578 1579 1579 1580 1580 1581 1581 1581 1581 1581 1581 1581 1582 1582 1583 1583 1583 1582 1582 1583 1583 1583 1584 1584 1584 1585 1585 1585 1586 1586 1587 1587 1588 1588 1589 1589 1590
1570 1571 1572 1573 1574 1575 1576 1577 1577 1578 1579 1579 1580 1580 1579 1580 1579 1579 1579 1579 1580 1580 1581 1580 1580 1580 1580 1580 1581 1581 1582 1582 1582 1582 1583 1583 1584 1584 1585 1585 1586 1586 1587
1567 1568 1570 1571 1572 1573 1574 1575 1575 1576 1576 1577 1578 1578 1578 1577 1576 1576 1576 1577 1577 1577 1577 1577 1578 1578 1578 1578 1578 1578 1579 1579 1579 1579 1580 1580 1580 1581 1581 1582 1582 1582 1583
1564 1565 1567 1568 1569 1570 1571 1572 1573 1573 1574 1574 1575 1576 1576 1575 1575 1574 1574 1574 1574 1574 1574 1574 1575 1574 1575 1575 1574 1575 1575 1575 1576 1576 1576 1577 1577 1577 1577 1578 1578 1578 1579
1561 1562 1564 1565 1566 1567 1568 1569 1570 1571 1571 1572 1572 1573 1573 1573 1573 1573 1571 1571 1571 1571 1571 1571 1571 1571 1572 1571 1571 1571 1571 1572 1572 1573 1573 1573 1573 1573 1573 1573 1574 1574 1574
1558 1559 1560 1561 1562 1564 1565 1566 1566 1567 1568 1569 1569 1569 1570 1570 1570 1570 1569 1568 1568 1568 1568 1568 1568 1567 1567 1567 1567 1567 1568 1568 1569 1569 1569 1569 1569 1569 1569 1569 1569 1570 1570
1554 1555 1556 1558 1559 1560 1561 1562 1563 1563 1564 1565 1566 1566 1566 1567 1567 1567 1566 1565 1565 1565 1564 1564 1564 1564 1564 1563 1564 1564 1564 1564 1564 1565 1565 1565 1565 1565 1565 1565 1565 1565 1565
1551 1552 1553 1554 1555 1556 1557 1557 1558 1559 1560 1561 1561 1562 1562 1563 1563 1563 1563 1563 1562 1562 1561 1560 1560 1560 1560 1560 1560 1561 1560 1560 1560 1560 1560 1560 1561 1560 1561 1561 1561 1561 1561
1548 1549 1549 1550 1551 1552 1553 1553 1554 1555 1556 1557 1557 1558 1558 1559 1559 1560 1559 1559 1560 1558 1557 1557 1557 1557 1557 1557 1557 1557 1557 1556 1556 1556 1556 1556 1556 1556 1556 1556 1556 1556 1556
1544 1545 1546 1547 1548 1548 1549 1550 1550 1551 1552 1553 1553 1554 1554 1555 1555 1556 1556 1555 1555 1555 1553 1553 1553 1554 1554 1554 1553 1553 1553 1552 1552 1552 1552 1552 1552 1552 1551 1551 1551 1551 1551
1540 1542 1543 1543 1544 1545 1546 1546 1547 1548 1548 1549 1549 1550 1550 1551 1551 1551 1551 1551 1551 1551 1550 1550 1550 1550 1550 1550 1549 1549 1549 1549 1548 1548 1548 1548 1548 1548 1547 1547 1547 1547 1546
1538 1539 1540 1541 1541 1542 1543 1543 1544 1544 1545 1545 1546 1547 1547 1547 1547 1548 1548 1548 1548 1548 1547 1546 1547 1547 1546 1546 1546 1545 1545 1545 1545 1545 1544 1544 1544 1544 1544 1543 1543 1542 1542
1535 1536 1537 1538 1539 1540 1540 1541 1541 1542 1542 1543 1543 1544 1545 1545 1545 1545 1545 1545 1545 1545 1545 1544 1544 1544 1544 1544 1543 1543 1542 1542 1542 1542 1541 1541 1541 1540 1540 1540 1539 1539 1539
1533 1534 1535 1536 1537 1538 1539 1539 1539 1540 1541 1541 1542 1542 1542 1542 1543 1543 1543 1543 1543 1543 1542 1542 1542 1542 1542 1541 1541 1540 1540 1540 1539 1539 1538 1538 1537 1537 1537 1537 1537 1536 1536
1532 1533 1534 1534 1535 1536 1537 1538 1538 1539 1540 1540 1541 1541 1541 1541 1541 1542 1542 1542 1541 1541 1541 1541 1540 1540 1540 1539 1539 1538 1537 1537 1537 1536 1536 1536 1535 1534 1534 1534 1534 1533 1533
1530 1531 1532 1533 1534 1535 1536 1537 1538 1538 1539 1539 1540 1540 1540 1540 1541 1541 1541 1541 1540 1540 1540 1539 1539 1539 1538 1538 1537 1536 1536 1535 1534 1535 1534 1534 1533 1532 1532 1532 1531 1531 1531
1530 1530 1531 1532 1533 1535 1536 1537 1538 1538 1539 1539 1539 1539 1540 1540 1540 1540 1540 1540 1540 1539 1539 1539 1539 1538 1538 1537 1536 1535 1534 1534 1533 1533 1532 1532 1532 1531 1531 1530 1530 1529 1528
1530 1531 1532 1533 1534 1535 1536 1537 1538 1538 1538 1538 1539 1539 1540 1540 1540 1540 1540 1540 1539 1539 1539 1539 1539 1538 1538 1537 1536 1535 1534 1534 1533 1532 1532 1531 1531 1530 1529 1528 1528 1527 1526
1531 1532 1533 1534 1534 1535 1536 1537 1538 1538 1538 1538 1539 1540 1540 1541 1541 1541 1541 1540 1540 1540 1540 1540 1540 1539 1539 1538 1537 1535 1534 1533 1533 1532 1532 1531 1530 1529 1528 1528 1527 1526 1525
1532 1533 1534 1534 1535 1536 1537 1538 1538 1538 1539 1539 1540 1540 1541 1541 1541 1541 1541 1541 1540 1541 1541 1541 1541 1540 1540 1539 1537 1536 1535 1534 1533 1533 1532 1532 1531 1530 1529 1528 1527 1526 1525